TERRESTAR-1 (35496 NORAD) Tracking and Keplerian Element Data

This shows tracking and keplerian element data for the satellite.

Feedback or suggestion? Click here.




ElementValue
Catalog35496
NameTERRESTAR-1
Epoch Orbit5713
Epoch Day34.59010707
Epoch Year2025
RAAN48.3703
Inclination4.8195
Eccentricity0.0003021
Argument of Perigee273.6574
Mean Anonmoly273.4014
Mean Motion1.00270668
Decay Rate-5.3E-07
L11 35496U 09035A 25034.59010707 -.00000053 00000+0 00000+0 0 9994
L22 35496 4.8195 48.3703 0003021 273.6574 273.4014 1.00270668 57138



Live tracking and technical data element details for TERRESTAR-1 (NORAD 35496). TERRESTAR-1 can be tracked NOW for your location showing map with azimuth and elevation plus other details from your city location.







IsCatalogInMostPopularTable: catalog: 35496, numindb: 336
Update: records affected: 1



GetName: 35496 TERRESTAR-1

Hit Count: updated at: Thu, 15 May 2025 19:38:26 GMT